Regional Weather Roundup
Issued by NWS Nashville, TN

Home | Current Version | Previous Version | Text Only | Print | Product List | Glossary On
Versions: 1 2 3 4 5 6 7 8 9 10 11 12 13 14 15 16 17 18 19 20 21 22 23 24 25 26 27
000
ASUS44 KOHX 230410
RWROHX
MIDDLE TENNESSEE HOURLY WEATHER ROUNDUP
NATIONAL WEATHER SERVICE NASHVILLE TN
1000 PM CST SUN JAN 22 2017

NOTE: "FAIR" INDICATES FEW OR NO CLOUDS BELOW 12,000 FEET WITH
NO SIGNIFICANT WEATHER AND/OR OBSTRUCTIONS TO VISIBILITY.

* THESE REPORTS ARE NOT UNDER NWS QUALITY CONTROL AND MAY NOT
  REPORT WEATHER SUCH AS PRECIPITATION AND FOG.


TNZ005>011-023>034-057-059-062>066-078-080-230500
...NORTHERN MIDDLE TENNESSEE...

CITY           SKY/WX    TMP DP  RH WIND       PRES   REMARKS
CLARKSVILLE    LGT RAIN  58  49  72 N22       29.35S
CROSSVILLE     HVY RAIN  52  51  97 E8        29.25R FOG
GALLATIN       CLOUDY    55  54  94 N16G24    29.30F FOG
DICKSON        CLOUDY    55  52  90 N17       29.33R
LEBANON        CLOUDY    56  50  80 N10       29.26R
NASHVILLE      CLOUDY    58  51  78 N18G25    29.28F
PORTLAND       CLOUDY    55  54  94 N13G21    29.30S FOG
SMYRNA         CLOUDY    57  52  83 N20       29.28R
SPRINGFIELD    CLOUDY    57  52  82 N15G21    29.32R
WEST NASHVILLE CLOUDY    55  52  88 N14       29.29F
$$
TNZ056-058-060-061-075>077-079-093>097-230500
...SOUTHERN MIDDLE TENNESSEE...

CITY           SKY/WX    TMP DP  RH WIND       PRES   REMARKS
COLUMBIA       CLOUDY    57  57 100 N15       29.27R
MCMINNVILLE    CLOUDY    55  54  94 N14       29.22R
SHELBYVILLE    CLOUDY    59  54  82 N22       29.24R
TULLAHOMA      CLOUDY    55  52  88 N13       29.21S
WINCHESTER     CLOUDY    54  54 100 NW7       29.20S
$$


...KEY TO REMARKS...
VSB - VISIBILITY IN MILES
WCI - WIND CHILL INDEX
HX  - HEAT INDEX





USA.gov is the U.S. government's official web portal to all federal, state and local government web resources and services.